User: anonymous   Login
Location: Unspecified
(0.0000°N, 0.0000°E)
Time: 02:58:53
(UTC+00:00)
Language:

Intelsat II F-2 - Orbit

View from above orbital plane
View from above orbital plane
View from above satellite
View from above satellite

Ground track
Ground track

The orbit data is extracted from the following two-line orbital elements,

1  2639U 67001A   18171.59468233 -.00000081 +00000-0 +00000-0 0  9992
2  2639 003.9025 295.5848 0009912 298.6526 053.5972 01.00274442089979
Epoch (UTC): 20 June 2018 14:16:20
Eccentricity: 0.0009912
inclination: 3.9025°
perigee height: 35743 km
apogee height: 35827 km
right ascension of ascending node: 295.5848°
argument of perigee: 298.6526°
revolutions per day: 1.00274442
mean anomaly at epoch: 53.5972°
orbit number at epoch: 8997

The dashed part of the orbit path shows where the satellite is in the earth's shadow,  

DLR